Year,Month,Day,Hour,Minute,Value (Times are PST for temperature in C)
2017,08,15,00,00,15.70
2017,08,15,00,01,15.70
2017,08,15,00,02,15.70
2017,08,15,00,03,15.70
2017,08,15,00,04,15.70
2017,08,15,00,05,15.70
2017,08,15,00,06,15.70
2017,08,15,00,07,15.70
2017,08,15,00,08,15.70
2017,08,15,00,09,15.70
2017,08,15,00,10,15.70
2017,08,15,00,11,15.70
2017,08,15,00,12,15.70
2017,08,15,00,13,15.70
2017,08,15,00,14,15.70
2017,08,15,00,15,15.70
2017,08,15,00,16,15.70
2017,08,15,00,17,15.70
2017,08,15,00,18,15.70
2017,08,15,00,19,15.70
2017,08,15,00,20,15.70
2017,08,15,00,21,15.80
2017,08,15,00,22,15.80
2017,08,15,00,23,15.80
2017,08,15,00,24,15.80
2017,08,15,00,25,15.80
2017,08,15,00,26,15.90
2017,08,15,00,27,15.90
2017,08,15,00,28,15.90
2017,08,15,00,29,15.90
2017,08,15,00,30,16.00
2017,08,15,00,31,16.00
2017,08,15,00,32,16.00
2017,08,15,00,33,16.00
2017,08,15,00,34,16.00
2017,08,15,00,35,16.00
2017,08,15,00,36,16.00
2017,08,15,00,37,16.10
2017,08,15,00,38,16.00
2017,08,15,00,39,16.10
2017,08,15,00,40,16.10
2017,08,15,00,41,16.10
2017,08,15,00,42,16.10
2017,08,15,00,43,16.10
2017,08,15,00,44,16.10
2017,08,15,00,45,16.10
2017,08,15,00,46,16.10
2017,08,15,00,47,16.10
2017,08,15,00,48,16.10
2017,08,15,00,49,16.10
2017,08,15,00,50,16.10
2017,08,15,00,51,16.10
2017,08,15,00,52,16.10
2017,08,15,00,53,16.10
2017,08,15,00,54,16.10
2017,08,15,00,55,16.10
2017,08,15,00,56,16.10
2017,08,15,00,57,16.10
2017,08,15,00,58,16.10
2017,08,15,00,59,16.10
2017,08,15,01,00,16.10
2017,08,15,01,01,16.00
2017,08,15,01,02,16.00
2017,08,15,01,03,16.00
2017,08,15,01,04,16.00
2017,08,15,01,05,16.00
2017,08,15,01,06,16.00
2017,08,15,01,07,15.90
2017,08,15,01,08,15.90
2017,08,15,01,09,15.90
2017,08,15,01,10,15.90
2017,08,15,01,11,15.90
2017,08,15,01,12,15.90
2017,08,15,01,13,15.90
2017,08,15,01,14,15.90
2017,08,15,01,15,15.90
2017,08,15,01,16,15.90
2017,08,15,01,17,15.90
2017,08,15,01,18,15.90
2017,08,15,01,19,15.90
2017,08,15,01,20,16.00
2017,08,15,01,21,15.90
2017,08,15,01,22,15.90
2017,08,15,01,23,15.90
2017,08,15,01,24,16.00
2017,08,15,01,25,16.00
2017,08,15,01,26,15.90
2017,08,15,01,27,15.90
2017,08,15,01,28,15.90
2017,08,15,01,29,15.90
2017,08,15,01,30,15.90
2017,08,15,01,31,15.90
2017,08,15,01,32,15.90
2017,08,15,01,33,15.90
2017,08,15,01,34,15.90
2017,08,15,01,35,15.90
2017,08,15,01,36,15.90
2017,08,15,01,37,15.90
2017,08,15,01,38,15.90
2017,08,15,01,39,15.90
2017,08,15,01,40,15.90
2017,08,15,01,41,15.90
2017,08,15,01,42,15.90
2017,08,15,01,43,15.90
2017,08,15,01,44,15.90
2017,08,15,01,45,15.90
2017,08,15,01,46,15.90
2017,08,15,01,47,15.90
2017,08,15,01,48,15.90
2017,08,15,01,49,15.90
2017,08,15,01,50,15.90
2017,08,15,01,51,15.90
2017,08,15,01,52,15.80
2017,08,15,01,53,15.80
2017,08,15,01,54,15.80
2017,08,15,01,55,15.80
2017,08,15,01,56,15.80
2017,08,15,01,57,15.80
2017,08,15,01,58,15.80
2017,08,15,01,59,15.80
2017,08,15,02,00,15.80
2017,08,15,02,01,15.80
2017,08,15,02,02,15.80
2017,08,15,02,03,15.70
2017,08,15,02,04,15.70
2017,08,15,02,05,15.70
2017,08,15,02,06,15.70
2017,08,15,02,07,15.70
2017,08,15,02,08,15.70
2017,08,15,02,09,15.70
2017,08,15,02,10,15.70
2017,08,15,02,11,15.70
2017,08,15,02,12,15.70
2017,08,15,02,13,15.70
2017,08,15,02,14,15.70
2017,08,15,02,15,15.60
2017,08,15,02,16,15.60
2017,08,15,02,17,15.60
2017,08,15,02,18,15.60
2017,08,15,02,19,15.60
2017,08,15,02,20,15.60
2017,08,15,02,21,15.60
2017,08,15,02,22,15.50
2017,08,15,02,23,15.50
2017,08,15,02,24,15.50
2017,08,15,02,25,15.50
2017,08,15,02,26,15.50
2017,08,15,02,27,15.50
2017,08,15,02,28,15.40
2017,08,15,02,29,15.40
2017,08,15,02,30,15.40
2017,08,15,02,31,15.40
2017,08,15,02,32,15.40
2017,08,15,02,33,15.40
2017,08,15,02,34,15.40
2017,08,15,02,35,15.40
2017,08,15,02,36,15.40
2017,08,15,02,37,15.40
2017,08,15,02,38,15.30
2017,08,15,02,39,15.30
2017,08,15,02,40,15.30
2017,08,15,02,41,15.30
2017,08,15,02,42,15.30
2017,08,15,02,43,15.30
2017,08,15,02,44,15.30
2017,08,15,02,45,15.30
2017,08,15,02,46,15.30
2017,08,15,02,47,15.30
2017,08,15,02,48,15.20
2017,08,15,02,49,15.20
2017,08,15,02,50,15.20
2017,08,15,02,51,15.20
2017,08,15,02,52,15.20
2017,08,15,02,53,15.20
2017,08,15,02,54,15.20
2017,08,15,02,55,15.20
2017,08,15,02,56,15.10
2017,08,15,02,57,15.10
2017,08,15,02,58,15.10
2017,08,15,02,59,15.10
2017,08,15,03,00,15.10
2017,08,15,03,01,15.10
2017,08,15,03,02,15.10
2017,08,15,03,03,15.00
2017,08,15,03,04,15.00
2017,08,15,03,05,15.00
2017,08,15,03,06,15.00
2017,08,15,03,07,14.90
2017,08,15,03,08,14.90
2017,08,15,03,09,14.90
2017,08,15,03,10,14.90
2017,08,15,03,11,14.90
2017,08,15,03,12,14.90
2017,08,15,03,13,14.90
2017,08,15,03,14,14.90
2017,08,15,03,15,14.80
2017,08,15,03,16,14.80
2017,08,15,03,17,14.80
2017,08,15,03,18,14.80
2017,08,15,03,19,14.80
2017,08,15,03,20,14.70
2017,08,15,03,21,14.70
2017,08,15,03,22,14.70
2017,08,15,03,23,14.60
2017,08,15,03,24,14.60
2017,08,15,03,25,14.60
2017,08,15,03,26,14.50
2017,08,15,03,27,14.50
2017,08,15,03,28,14.40
2017,08,15,03,29,14.40
2017,08,15,03,30,14.40
2017,08,15,03,31,14.40
2017,08,15,03,32,14.40
2017,08,15,03,33,14.40
2017,08,15,03,34,14.40
2017,08,15,03,35,14.40
2017,08,15,03,36,14.30
2017,08,15,03,37,14.30
2017,08,15,03,38,14.30
2017,08,15,03,39,14.20
2017,08,15,03,40,14.20
2017,08,15,03,41,14.20
2017,08,15,03,42,14.20
2017,08,15,03,43,14.20
2017,08,15,03,44,14.20
2017,08,15,03,45,14.20
2017,08,15,03,46,14.20
2017,08,15,03,47,14.20
2017,08,15,03,48,14.20
2017,08,15,03,49,14.20
2017,08,15,03,50,14.20
2017,08,15,03,51,14.20
2017,08,15,03,52,14.20
2017,08,15,03,53,14.20
2017,08,15,03,54,14.20
2017,08,15,03,55,14.20
2017,08,15,03,56,14.20
2017,08,15,03,57,14.20
2017,08,15,03,58,14.20
2017,08,15,03,59,14.20
2017,08,15,04,00,14.20
2017,08,15,04,01,14.20
2017,08,15,04,02,14.20
2017,08,15,04,03,14.20
2017,08,15,04,04,14.20
2017,08,15,04,05,14.20
2017,08,15,04,06,14.20
2017,08,15,04,07,14.20
2017,08,15,04,08,14.20
2017,08,15,04,09,14.30
2017,08,15,04,10,14.30
2017,08,15,04,11,14.30
2017,08,15,04,12,14.30
2017,08,15,04,13,14.30
2017,08,15,04,14,14.30
2017,08,15,04,15,14.30
2017,08,15,04,16,14.30
2017,08,15,04,17,14.30
2017,08,15,04,18,14.30
2017,08,15,04,19,14.30
2017,08,15,04,20,14.30
2017,08,15,04,21,14.30
2017,08,15,04,22,14.30
2017,08,15,04,23,14.30
2017,08,15,04,24,14.30
2017,08,15,04,25,14.30
2017,08,15,04,26,14.30
2017,08,15,04,27,14.30
2017,08,15,04,28,14.30
2017,08,15,04,29,14.30
2017,08,15,04,30,14.30
2017,08,15,04,31,14.30
2017,08,15,04,32,14.30
2017,08,15,04,33,14.20
2017,08,15,04,34,14.20
2017,08,15,04,35,14.20
2017,08,15,04,36,14.10
2017,08,15,04,37,14.10
2017,08,15,04,38,14.10
2017,08,15,04,39,14.00
2017,08,15,04,40,14.00
2017,08,15,04,41,13.90
2017,08,15,04,42,13.90
2017,08,15,04,43,13.90
2017,08,15,04,44,13.80
2017,08,15,04,45,13.80
2017,08,15,04,46,13.80
2017,08,15,04,47,13.80
2017,08,15,04,48,13.70
2017,08,15,04,49,13.70
2017,08,15,04,50,13.70
2017,08,15,04,51,13.60
2017,08,15,04,52,13.60
2017,08,15,04,53,13.60
2017,08,15,04,54,13.60
2017,08,15,04,55,13.60
2017,08,15,04,56,13.60
2017,08,15,04,57,13.60
2017,08,15,04,58,13.60
2017,08,15,04,59,13.60
2017,08,15,05,00,13.60
2017,08,15,05,01,13.60
2017,08,15,05,02,13.60
2017,08,15,05,03,13.60
2017,08,15,05,04,13.60
2017,08,15,05,05,13.50
2017,08,15,05,06,13.50
2017,08,15,05,07,13.50
2017,08,15,05,08,13.50
2017,08,15,05,09,13.50
2017,08,15,05,10,13.50
2017,08,15,05,11,13.50
2017,08,15,05,12,13.50
2017,08,15,05,13,13.50
2017,08,15,05,14,13.50
2017,08,15,05,15,13.50
2017,08,15,05,16,13.60
2017,08,15,05,17,13.60
2017,08,15,05,18,13.60
2017,08,15,05,19,13.60
2017,08,15,05,20,13.70
2017,08,15,05,21,13.70
2017,08,15,05,22,13.70
2017,08,15,05,23,13.70
2017,08,15,05,24,13.70
2017,08,15,05,25,13.70
2017,08,15,05,26,13.80
2017,08,15,05,27,13.80
2017,08,15,05,28,13.80
2017,08,15,05,29,13.80
2017,08,15,05,30,13.80
2017,08,15,05,31,13.90
2017,08,15,05,32,13.90
2017,08,15,05,33,13.90
2017,08,15,05,34,13.90
2017,08,15,05,35,13.90
2017,08,15,05,36,13.90
2017,08,15,05,37,13.90
2017,08,15,05,38,13.90
2017,08,15,05,39,13.90
2017,08,15,05,40,13.90
2017,08,15,05,41,13.90
2017,08,15,05,42,13.90
2017,08,15,05,43,14.00
2017,08,15,05,44,14.00
2017,08,15,05,45,14.00
2017,08,15,05,46,14.00
2017,08,15,05,47,14.00
2017,08,15,05,48,14.00
2017,08,15,05,49,13.90
2017,08,15,05,50,13.90
2017,08,15,05,51,13.90
2017,08,15,05,52,13.90
2017,08,15,05,53,13.90
2017,08,15,05,54,13.90
2017,08,15,05,55,13.90
2017,08,15,05,56,13.80
2017,08,15,05,57,13.80
2017,08,15,05,58,13.80
2017,08,15,05,59,13.80
2017,08,15,06,00,13.80
2017,08,15,06,01,13.80
2017,08,15,06,02,13.80
2017,08,15,06,03,13.80
2017,08,15,06,04,13.80
2017,08,15,06,05,13.80
2017,08,15,06,06,13.80
2017,08,15,06,07,13.80
2017,08,15,06,08,13.80
2017,08,15,06,09,13.80
2017,08,15,06,10,13.80
2017,08,15,06,11,13.80
2017,08,15,06,12,13.80
2017,08,15,06,13,13.80
2017,08,15,06,14,13.80
2017,08,15,06,15,13.80
2017,08,15,06,16,13.80
2017,08,15,06,17,13.80
2017,08,15,06,18,13.80
2017,08,15,06,19,13.80
2017,08,15,06,20,13.80
2017,08,15,06,21,13.70
2017,08,15,06,22,13.70
2017,08,15,06,23,13.70
2017,08,15,06,24,13.60
2017,08,15,06,25,13.60
2017,08,15,06,26,13.60
2017,08,15,06,27,13.60
2017,08,15,06,28,13.60
2017,08,15,06,29,13.50
2017,08,15,06,30,13.50
2017,08,15,06,31,13.50
2017,08,15,06,32,13.50
2017,08,15,06,33,13.40
2017,08,15,06,34,13.40
2017,08,15,06,35,13.40
2017,08,15,06,36,13.40
2017,08,15,06,37,13.40
2017,08,15,06,38,13.40
2017,08,15,06,39,13.40
2017,08,15,06,40,13.40
2017,08,15,06,41,13.40
2017,08,15,06,42,13.50
2017,08,15,06,43,13.50
2017,08,15,06,44,13.50
2017,08,15,06,45,13.50
2017,08,15,06,46,13.50
2017,08,15,06,47,13.50
2017,08,15,06,48,13.50
2017,08,15,06,49,13.60
2017,08,15,06,50,13.60
2017,08,15,06,51,13.60
2017,08,15,06,52,13.60
2017,08,15,06,53,13.60
2017,08,15,06,54,13.60
2017,08,15,06,55,13.60
2017,08,15,06,56,13.60
2017,08,15,06,57,13.60
2017,08,15,06,58,13.70
2017,08,15,06,59,13.70
2017,08,15,07,00,13.70
2017,08,15,07,01,13.70
2017,08,15,07,02,13.80
2017,08,15,07,03,13.80
2017,08,15,07,04,13.80
2017,08,15,07,05,13.80
2017,08,15,07,06,13.80
2017,08,15,07,07,13.80
2017,08,15,07,08,13.80
2017,08,15,07,09,13.80
2017,08,15,07,10,13.80
2017,08,15,07,11,13.80
2017,08,15,07,12,13.80
2017,08,15,07,13,13.80
2017,08,15,07,14,13.80
2017,08,15,07,15,13.90
2017,08,15,07,16,13.90
2017,08,15,07,17,13.90
2017,08,15,07,18,13.90
2017,08,15,07,19,13.90
2017,08,15,07,20,13.90
2017,08,15,07,21,13.90
2017,08,15,07,22,13.90
2017,08,15,07,23,13.90
2017,08,15,07,24,13.90
2017,08,15,07,25,13.90
2017,08,15,07,26,13.90
2017,08,15,07,27,13.90
2017,08,15,07,28,13.90
2017,08,15,07,29,13.80
2017,08,15,07,30,13.80
2017,08,15,07,31,13.80
2017,08,15,07,32,13.80
2017,08,15,07,33,13.80
2017,08,15,07,34,13.80
2017,08,15,07,35,13.80
2017,08,15,07,36,13.80
2017,08,15,07,37,13.80
2017,08,15,07,38,13.80
2017,08,15,07,39,13.80
2017,08,15,07,40,13.80
2017,08,15,07,41,13.80
2017,08,15,07,42,13.80
2017,08,15,07,43,13.80
2017,08,15,07,44,13.80
2017,08,15,07,45,13.80
2017,08,15,07,46,13.80
2017,08,15,07,47,13.90
2017,08,15,07,48,13.90
2017,08,15,07,49,13.90
2017,08,15,07,50,13.90
2017,08,15,07,51,14.00
2017,08,15,07,52,14.00
2017,08,15,07,53,14.10
2017,08,15,07,54,14.10
2017,08,15,07,55,14.20
2017,08,15,07,56,14.20
2017,08,15,07,57,14.20
2017,08,15,07,58,14.30
2017,08,15,07,59,14.30
2017,08,15,08,00,14.30
2017,08,15,08,01,14.40
2017,08,15,08,02,14.40
2017,08,15,08,03,14.50
2017,08,15,08,04,14.50
2017,08,15,08,05,14.60
2017,08,15,08,06,14.60
2017,08,15,08,07,14.70
2017,08,15,08,08,14.70
2017,08,15,08,09,14.70
2017,08,15,08,10,14.80
2017,08,15,08,11,14.80
2017,08,15,08,12,14.80
2017,08,15,08,13,14.90
2017,08,15,08,14,14.90
2017,08,15,08,15,14.90
2017,08,15,08,16,14.90
2017,08,15,08,17,14.90
2017,08,15,08,18,15.00
2017,08,15,08,19,15.00
2017,08,15,08,20,15.00
2017,08,15,08,21,15.00
2017,08,15,08,22,15.00
2017,08,15,08,23,15.10
2017,08,15,08,24,15.10
2017,08,15,08,25,15.10
2017,08,15,08,26,15.10
2017,08,15,08,27,15.10
2017,08,15,08,28,15.10
2017,08,15,08,29,15.20
2017,08,15,08,30,15.20
2017,08,15,08,31,15.20
2017,08,15,08,32,15.20
2017,08,15,08,33,15.20
2017,08,15,08,34,15.20
2017,08,15,08,35,15.30
2017,08,15,08,36,15.30
2017,08,15,08,37,15.30
2017,08,15,08,38,15.30
2017,08,15,08,39,15.30
2017,08,15,08,40,15.30
2017,08,15,08,41,15.30
2017,08,15,08,42,15.30
2017,08,15,08,43,15.40
2017,08,15,08,44,15.40
2017,08,15,08,45,15.40
2017,08,15,08,46,15.40
2017,08,15,08,47,15.40
2017,08,15,08,48,15.50
2017,08,15,08,49,15.50
2017,08,15,08,50,15.50
2017,08,15,08,51,15.50
2017,08,15,08,52,15.60
2017,08,15,08,53,15.60
2017,08,15,08,54,15.60
2017,08,15,08,55,15.60
2017,08,15,08,56,15.60
2017,08,15,08,57,15.70
2017,08,15,08,58,15.70
2017,08,15,08,59,15.70
2017,08,15,09,00,15.70
2017,08,15,09,01,15.70
2017,08,15,09,02,15.60
2017,08,15,09,03,15.60
2017,08,15,09,04,15.60
2017,08,15,09,05,15.60
2017,08,15,09,06,15.60
2017,08,15,09,07,15.60
2017,08,15,09,08,15.60
2017,08,15,09,09,15.70
2017,08,15,09,10,15.70
2017,08,15,09,11,15.70
2017,08,15,09,12,15.70
2017,08,15,09,13,15.70
2017,08,15,09,14,15.80
2017,08,15,09,15,15.80
2017,08,15,09,16,15.90
2017,08,15,09,17,15.90
2017,08,15,09,18,15.90
2017,08,15,09,19,15.90
2017,08,15,09,20,15.90
2017,08,15,09,21,16.00
2017,08,15,09,22,16.10
2017,08,15,09,23,16.10
2017,08,15,09,24,16.10
2017,08,15,09,25,16.10
2017,08,15,09,26,16.20
2017,08,15,09,27,16.20
2017,08,15,09,28,16.30
2017,08,15,09,29,16.30
2017,08,15,09,30,16.40
2017,08,15,09,31,16.50
2017,08,15,09,32,16.50
2017,08,15,09,33,16.50
2017,08,15,09,34,16.60
2017,08,15,09,35,16.60
2017,08,15,09,36,16.60
2017,08,15,09,37,16.70
2017,08,15,09,38,16.70
2017,08,15,09,39,16.80
2017,08,15,09,40,16.80
2017,08,15,09,41,16.90
2017,08,15,09,42,16.90
2017,08,15,09,43,17.00
2017,08,15,09,44,17.00
2017,08,15,09,45,17.10
2017,08,15,09,46,17.10
2017,08,15,09,47,17.10
2017,08,15,09,48,17.10
2017,08,15,09,49,17.20
2017,08,15,09,50,17.20
2017,08,15,09,51,17.20
2017,08,15,09,52,17.20
2017,08,15,09,53,17.20
2017,08,15,09,54,17.20
2017,08,15,09,55,17.20
2017,08,15,09,56,17.20
2017,08,15,09,57,17.20
2017,08,15,09,58,17.20
2017,08,15,09,59,17.20
2017,08,15,10,00,17.20
2017,08,15,10,01,17.20
2017,08,15,10,02,17.20
2017,08,15,10,03,17.20
2017,08,15,10,04,17.20
2017,08,15,10,05,17.20
2017,08,15,10,06,17.20
2017,08,15,10,07,17.20
2017,08,15,10,08,17.30
2017,08,15,10,09,17.30
2017,08,15,10,10,17.30
2017,08,15,10,11,17.30
2017,08,15,10,12,17.30
2017,08,15,10,13,17.30
2017,08,15,10,14,17.30
2017,08,15,10,15,17.30
2017,08,15,10,16,17.30
2017,08,15,10,17,17.30
2017,08,15,10,18,17.30
2017,08,15,10,19,17.40
2017,08,15,10,20,17.40
2017,08,15,10,21,17.40
2017,08,15,10,22,17.40
2017,08,15,10,23,17.40
2017,08,15,10,24,17.40
2017,08,15,10,25,17.40
2017,08,15,10,26,17.40
2017,08,15,10,27,17.30
2017,08,15,10,28,17.30
2017,08,15,10,29,17.40
2017,08,15,10,30,17.40
2017,08,15,10,31,17.50
2017,08,15,10,32,17.50
2017,08,15,10,33,17.50
2017,08,15,10,34,17.60
2017,08,15,10,35,17.60
2017,08,15,10,36,17.60
2017,08,15,10,37,17.60
2017,08,15,10,38,17.60
2017,08,15,10,39,17.60
2017,08,15,10,40,17.60
2017,08,15,10,41,17.70
2017,08,15,10,42,17.70
2017,08,15,10,43,17.70
2017,08,15,10,44,17.80
2017,08,15,10,45,17.90
2017,08,15,10,46,17.90
2017,08,15,10,47,18.00
2017,08,15,10,48,18.00
2017,08,15,10,49,18.10
2017,08,15,10,50,18.20
2017,08,15,10,51,18.20
2017,08,15,10,52,18.30
2017,08,15,10,53,18.30
2017,08,15,10,54,18.30
2017,08,15,10,55,18.30
2017,08,15,10,56,18.30
2017,08,15,10,57,18.30
2017,08,15,10,58,18.30
2017,08,15,10,59,18.30
2017,08,15,11,00,18.40
2017,08,15,11,01,18.40
2017,08,15,11,02,18.50
2017,08,15,11,03,18.60
2017,08,15,11,04,18.60
2017,08,15,11,05,18.60
2017,08,15,11,06,18.60
2017,08,15,11,07,18.60
2017,08,15,11,08,18.60
2017,08,15,11,09,18.60
2017,08,15,11,10,18.60
2017,08,15,11,11,18.60
2017,08,15,11,12,18.70
2017,08,15,11,13,18.70
2017,08,15,11,14,18.70
2017,08,15,11,15,18.70
2017,08,15,11,16,18.70
2017,08,15,11,17,18.80
2017,08,15,11,18,18.80
2017,08,15,11,19,18.80
2017,08,15,11,20,18.70
2017,08,15,11,21,18.70
2017,08,15,11,22,18.70
2017,08,15,11,23,18.70
2017,08,15,11,24,18.70
2017,08,15,11,25,18.70
2017,08,15,11,26,18.70
2017,08,15,11,27,18.70
2017,08,15,11,28,18.80
2017,08,15,11,29,18.80
2017,08,15,11,30,18.80
2017,08,15,11,31,18.90
2017,08,15,11,32,18.90
2017,08,15,11,33,19.00
2017,08,15,11,34,19.00
2017,08,15,11,35,19.00
2017,08,15,11,36,19.00
2017,08,15,11,37,18.90
2017,08,15,11,38,18.80
2017,08,15,11,39,18.70
2017,08,15,11,40,18.60
2017,08,15,11,41,18.60
2017,08,15,11,42,18.60
2017,08,15,11,43,18.60
2017,08,15,11,44,18.60
2017,08,15,11,45,18.70
2017,08,15,11,46,18.80
2017,08,15,11,47,18.80
2017,08,15,11,48,18.90
2017,08,15,11,49,18.90
2017,08,15,11,50,19.00
2017,08,15,11,51,19.00
2017,08,15,11,52,19.10
2017,08,15,11,53,19.10
2017,08,15,11,54,19.10
2017,08,15,11,55,19.20
2017,08,15,11,56,19.20
2017,08,15,11,57,19.10
2017,08,15,11,58,19.10
2017,08,15,11,59,19.10
2017,08,15,12,00,19.10
2017,08,15,12,01,19.10
2017,08,15,12,02,19.20
2017,08,15,12,03,19.20
2017,08,15,12,04,19.20
2017,08,15,12,05,19.30
2017,08,15,12,06,19.40
2017,08,15,12,07,19.50
2017,08,15,12,08,19.60
2017,08,15,12,09,19.60
2017,08,15,12,10,19.60
2017,08,15,12,11,19.60
2017,08,15,12,12,19.70
2017,08,15,12,13,19.70
2017,08,15,12,14,19.80
2017,08,15,12,15,19.90
2017,08,15,12,16,20.00
2017,08,15,12,17,20.00
2017,08,15,12,18,20.10
2017,08,15,12,19,20.10
2017,08,15,12,20,20.20
2017,08,15,12,21,20.20
2017,08,15,12,22,20.20
2017,08,15,12,23,20.20
2017,08,15,12,24,20.10
2017,08,15,12,25,20.00
2017,08,15,12,26,20.00
2017,08,15,12,27,19.90
2017,08,15,12,28,19.90
2017,08,15,12,29,19.90
2017,08,15,12,30,20.00
2017,08,15,12,31,20.00
2017,08,15,12,32,20.10
2017,08,15,12,33,20.10
2017,08,15,12,34,20.10
2017,08,15,12,35,20.00
2017,08,15,12,36,19.90
2017,08,15,12,37,20.00
2017,08,15,12,38,20.00
2017,08,15,12,39,20.10
2017,08,15,12,40,20.10
2017,08,15,12,41,20.20
2017,08,15,12,42,20.20
2017,08,15,12,43,20.20
2017,08,15,12,44,20.10
2017,08,15,12,45,20.20
2017,08,15,12,46,20.10
2017,08,15,12,47,20.10
2017,08,15,12,48,20.10
2017,08,15,12,49,20.10
2017,08,15,12,50,20.10
2017,08,15,12,51,20.10
2017,08,15,12,52,20.10
2017,08,15,12,53,20.10
2017,08,15,12,54,20.20
2017,08,15,12,55,20.20
2017,08,15,12,56,20.30
2017,08,15,12,57,20.40
2017,08,15,12,58,20.50
2017,08,15,12,59,20.60
2017,08,15,13,00,20.70
2017,08,15,13,01,20.70
2017,08,15,13,02,20.80
2017,08,15,13,03,20.80
2017,08,15,13,04,20.80
2017,08,15,13,05,20.80
2017,08,15,13,06,20.80
2017,08,15,13,07,20.80
2017,08,15,13,08,20.80
2017,08,15,13,09,20.80
2017,08,15,13,10,20.90
2017,08,15,13,11,20.90
2017,08,15,13,12,21.00
2017,08,15,13,13,21.00
2017,08,15,13,14,21.10
2017,08,15,13,15,21.10
2017,08,15,13,16,21.20
2017,08,15,13,17,21.20
2017,08,15,13,18,21.20
2017,08,15,13,19,21.20
2017,08,15,13,20,21.30
2017,08,15,13,21,21.40
2017,08,15,13,22,21.40
2017,08,15,13,23,21.40
2017,08,15,13,24,21.40
2017,08,15,13,25,21.40
2017,08,15,13,26,21.40
2017,08,15,13,27,21.40
2017,08,15,13,28,21.40
2017,08,15,13,29,21.30
2017,08,15,13,30,21.30
2017,08,15,13,31,21.30
2017,08,15,13,32,21.30
2017,08,15,13,33,21.30
2017,08,15,13,34,21.30
2017,08,15,13,35,21.30
2017,08,15,13,36,21.30
2017,08,15,13,37,21.20
2017,08,15,13,38,21.20
2017,08,15,13,39,21.20
2017,08,15,13,40,21.20
2017,08,15,13,41,21.20
2017,08,15,13,42,21.20
2017,08,15,13,43,21.20
2017,08,15,13,44,21.20
2017,08,15,13,45,21.20
2017,08,15,13,46,21.20
2017,08,15,13,47,21.20
2017,08,15,13,48,21.20
2017,08,15,13,49,21.10
2017,08,15,13,50,21.10
2017,08,15,13,51,21.10
2017,08,15,13,52,21.10
2017,08,15,13,53,21.10
2017,08,15,13,54,21.10
2017,08,15,13,55,21.20
2017,08,15,13,56,21.30
2017,08,15,13,57,21.40
2017,08,15,13,58,21.50
2017,08,15,13,59,21.50
2017,08,15,14,00,21.50
2017,08,15,14,01,21.50
2017,08,15,14,02,21.50
2017,08,15,14,03,21.50
2017,08,15,14,04,21.60
2017,08,15,14,05,21.50
2017,08,15,14,06,21.50
2017,08,15,14,07,21.50
2017,08,15,14,08,21.60
2017,08,15,14,09,21.60
2017,08,15,14,10,21.60
2017,08,15,14,11,21.70
2017,08,15,14,12,21.80
2017,08,15,14,13,21.80
2017,08,15,14,14,21.80
2017,08,15,14,15,21.80
2017,08,15,14,16,21.80
2017,08,15,14,17,21.80
2017,08,15,14,18,21.80
2017,08,15,14,19,21.70
2017,08,15,14,20,21.70
2017,08,15,14,21,21.70
2017,08,15,14,22,21.70
2017,08,15,14,23,21.70
2017,08,15,14,24,21.70
2017,08,15,14,25,21.70
2017,08,15,14,26,21.80
2017,08,15,14,27,21.80
2017,08,15,14,28,21.80
2017,08,15,14,29,21.80
2017,08,15,14,30,21.90
2017,08,15,14,31,21.90
2017,08,15,14,32,21.80
2017,08,15,14,33,21.80
2017,08,15,14,34,21.80
2017,08,15,14,35,21.80
2017,08,15,14,36,21.80
2017,08,15,14,37,21.80
2017,08,15,14,38,21.80
2017,08,15,14,39,21.80
2017,08,15,14,40,21.80
2017,08,15,14,41,21.80
2017,08,15,14,42,21.80
2017,08,15,14,43,21.80
2017,08,15,14,44,21.80
2017,08,15,14,45,21.80
2017,08,15,14,46,21.80
2017,08,15,14,47,21.90
2017,08,15,14,48,21.90
2017,08,15,14,49,21.90
2017,08,15,14,50,22.00
2017,08,15,14,51,22.00
2017,08,15,14,52,22.10
2017,08,15,14,53,22.10
2017,08,15,14,54,22.20
2017,08,15,14,55,22.30
2017,08,15,14,56,22.30
2017,08,15,14,57,22.40
2017,08,15,14,58,22.40
2017,08,15,14,59,22.50
2017,08,15,15,00,22.60
2017,08,15,15,01,22.60
2017,08,15,15,02,22.60
2017,08,15,15,03,22.60
2017,08,15,15,04,22.50
2017,08,15,15,05,22.50
2017,08,15,15,06,22.40
2017,08,15,15,07,22.40
2017,08,15,15,08,22.40
2017,08,15,15,09,22.40
2017,08,15,15,10,22.30
2017,08,15,15,11,22.30
2017,08,15,15,12,22.30
2017,08,15,15,13,22.30
2017,08,15,15,14,22.30
2017,08,15,15,15,22.30
2017,08,15,15,16,22.40
2017,08,15,15,17,22.40
2017,08,15,15,18,22.50
2017,08,15,15,19,22.50
2017,08,15,15,20,22.60
2017,08,15,15,21,22.70
2017,08,15,15,22,22.70
2017,08,15,15,23,22.80
2017,08,15,15,24,22.90
2017,08,15,15,25,22.90
2017,08,15,15,26,22.90
2017,08,15,15,27,22.80
2017,08,15,15,28,22.80
2017,08,15,15,29,22.80
2017,08,15,15,30,22.80
2017,08,15,15,31,22.80
2017,08,15,15,32,22.80
2017,08,15,15,33,22.90
2017,08,15,15,34,22.90
2017,08,15,15,35,22.90
2017,08,15,15,36,22.90
2017,08,15,15,37,22.90
2017,08,15,15,38,22.90
2017,08,15,15,39,23.00
2017,08,15,15,40,23.00
2017,08,15,15,41,23.10
2017,08,15,15,42,23.10
2017,08,15,15,43,23.10
2017,08,15,15,44,23.20
2017,08,15,15,45,23.20
2017,08,15,15,46,23.30
2017,08,15,15,47,23.30
2017,08,15,15,48,23.30
2017,08,15,15,49,23.40
2017,08,15,15,50,23.50
2017,08,15,15,51,23.60
2017,08,15,15,52,23.60
2017,08,15,15,53,23.60
2017,08,15,15,54,23.60
2017,08,15,15,55,23.60
2017,08,15,15,56,23.60
2017,08,15,15,57,23.60
2017,08,15,15,58,23.60
2017,08,15,15,59,23.70
2017,08,15,16,00,23.70
2017,08,15,16,01,23.80
2017,08,15,16,02,23.70
2017,08,15,16,03,23.70
2017,08,15,16,04,23.70
2017,08,15,16,05,23.60
2017,08,15,16,06,23.60
2017,08,15,16,07,23.60
2017,08,15,16,08,23.60
2017,08,15,16,09,23.60
2017,08,15,16,10,23.60
2017,08,15,16,11,23.60
2017,08,15,16,12,23.60
2017,08,15,16,13,23.60
2017,08,15,16,14,23.60
2017,08,15,16,15,23.50
2017,08,15,16,16,23.50
2017,08,15,16,17,23.50
2017,08,15,16,18,23.50
2017,08,15,16,19,23.50
2017,08,15,16,20,23.60
2017,08,15,16,21,23.60
2017,08,15,16,22,23.60
2017,08,15,16,23,23.60
2017,08,15,16,24,23.70
2017,08,15,16,25,23.70
2017,08,15,16,26,23.70
2017,08,15,16,27,23.80
2017,08,15,16,28,23.90
2017,08,15,16,29,24.00
2017,08,15,16,30,24.00
2017,08,15,16,31,24.00
2017,08,15,16,32,24.00
2017,08,15,16,33,24.00
2017,08,15,16,34,24.00
2017,08,15,16,35,24.00
2017,08,15,16,36,24.10
2017,08,15,16,37,24.20
2017,08,15,16,38,24.30
2017,08,15,16,39,24.30
2017,08,15,16,40,24.40
2017,08,15,16,41,24.40
2017,08,15,16,42,24.30
2017,08,15,16,43,24.30
2017,08,15,16,44,24.30
2017,08,15,16,45,24.20
2017,08,15,16,46,24.20
2017,08,15,16,47,24.30
2017,08,15,16,48,24.30
2017,08,15,16,49,24.40
2017,08,15,16,50,24.40
2017,08,15,16,51,24.40
2017,08,15,16,52,24.40
2017,08,15,16,53,24.40
2017,08,15,16,54,24.40
2017,08,15,16,55,24.50
2017,08,15,16,56,24.40
2017,08,15,16,57,24.40
2017,08,15,16,58,24.40
2017,08,15,16,59,24.40
2017,08,15,17,00,24.40
2017,08,15,17,01,24.40
2017,08,15,17,02,24.30
2017,08,15,17,03,24.20
2017,08,15,17,04,24.20
2017,08,15,17,05,24.10
2017,08,15,17,06,24.10
2017,08,15,17,07,24.00
2017,08,15,17,08,24.00
2017,08,15,17,09,24.00
2017,08,15,17,10,24.00
2017,08,15,17,11,24.00
2017,08,15,17,12,24.00
2017,08,15,17,13,23.90
2017,08,15,17,14,23.90
2017,08,15,17,15,23.90
2017,08,15,17,16,23.90
2017,08,15,17,17,24.00
2017,08,15,17,18,24.00
2017,08,15,17,19,24.00